Flag for Germany Weather past 2 weeks in Bergkamen, North Rhine-Westphalia, Germany

Now
40 °F

Overcast.


Feels Like: 40 °F
Forecast: 35 / 52 °F
Wind: 1 mph from Southwest

Location: Muenster / Osnabrueck

Current Time: Mar 6, 2015 at 5:09:43 AM

Latest Report: Mar 6, 2015 at 4:00 AM


Visibility: 13 mi

Pressure: 30.59 "Hg

Humidity: 81%

Dew point: 34 °F

Location of BergkamenLocation

Historic Weather in Bergkamen — Graph

°F

Bergkamen temperature yesterday

Maximum temperature yesterday: 47 °F (at 2:00 PM)
Minimum temperature yesterday: 34 °F (at 5:00 AM)
Average temperature yesterday: 41 °F

Past Weeks' High & Low Weather Summary

 TemperatureHumidityPressure
High50 °F (Mar 1, 5:00 PM)100% (Feb 22, 1:00 AM)30.63 "Hg (Feb 22, 1:00 AM)
Low28 °F (Feb 28, 5:00 AM)46% (Feb 28, 2:00 PM)29.29 "Hg (Feb 21, 6:00 AM)
Average40 °F81%29.89 "Hg
* Reported Feb 19 3:00 AM — Mar 6 3:00 AM, Bergkamen, Weather by CustomWeather, © 2015

Note: Actual official high and low records may vary slightly from our data, if they occured in-between our weather recording intervals... More about our weather records

Advertising

Bergkamen weather history for previous 24 hours

 ConditionsComfort  
Time TempWeatherWind HumidityBarometerVisibility
3:00 AM
Fri, Mar 6
39 °FOvercast.1 mph80%30.59 "Hg12 mi
2:00 AM39 °FOvercast.2 mph78%30.60 "Hg12 mi
1:00 AM34 °FOvercast.1 mph93%30.61 "Hg16 mi
12:00 AM36 °FFog.1 mph91%30.61 "Hg16 mi
10:00 PM
Thu, Mar 5
37 °FPassing clouds.1 mph89%30.61 "Hg16 mi
9:00 PM38 °FPassing clouds.1 mph86%30.60 "Hg16 mi
8:00 PM41 °FOvercast.2 mph78%30.60 "Hg19 mi
7:00 PM43 °FOvercast.3 mph75%30.60 "Hg19 mi
6:00 PM45 °FOvercast.3 mph67%30.60 "Hg28 mi
5:00 PM46 °FOvercast.3 mph59%30.60 "Hg28 mi
4:00 PM47 °FOvercast.5 mph60%30.60 "Hg28 mi
3:00 PM46 °FOvercast.6 mph62%30.60 "Hg25 mi
2:00 PM47 °FOvercast.5 mph57%30.60 "Hg25 mi
1:00 PM46 °FPartly sunny.5 mph72%30.62 "Hg19 mi
12:00 PM42 °FLow clouds.3 mph87%30.63 "Hg9 mi
11:00 AM41 °FLow clouds.3 mph90%30.63 "Hg5 mi
10:00 AM39 °FLow clouds.3 mph91%30.62 "Hg5 mi
9:00 AM38 °FFog.5 mph95%30.61 "Hg3 mi
8:00 AM38 °FFog.3 mph97%30.60 "Hg3 mi
7:00 AM37 °FLow clouds.3 mph95%30.59 "Hg5 mi
6:00 AM36 °FLow clouds.3 mph94%30.58 "Hg12 mi
5:00 AM34 °FOvercast.3 mph94%30.55 "Hg16 mi
Weather by CustomWeather, © 2015

See weather overviewHow to use our weather pages